N222HL KIND-KMQW

Flight info

Callsign N222HL
Flight time 1h 16m
Altitude 41000
Route DAWNN1 IIU Q79 KAILL Q118 THRSR LARZZ
Aircraft CL60/M-SADE3FGHIJ3J4J7P2RWXY/HB1D1

Departure

Time 2026-04-27 03:07
Airport Indianapolis International Airport (KIND)

Arrival

Time 2026-04-27 04:23
Airport Telfair Wheeler Airport (KMQW)
Time Latitude Longitude Altitude Speed Heading
2026-04-27 02:54 39.72307 -86.26958 781 ft 0 kts 134°
2026-04-27 03:01 39.72248 -86.26916 780 ft 4 kts 176°
2026-04-27 03:01 39.72221 -86.26952 781 ft 6 kts 235°
2026-04-27 03:02 39.72240 -86.27007 782 ft 8 kts 314°
2026-04-27 03:02 39.72284 -86.27066 783 ft 10 kts 314°
2026-04-27 03:02 39.72360 -86.27168 785 ft 18 kts 314°
2026-04-27 03:02 39.72453 -86.27288 787 ft 19 kts 316°
2026-04-27 03:03 39.72555 -86.27422 790 ft 23 kts 313°
2026-04-27 03:03 39.72801 -86.27748 794 ft 26 kts 313°
2026-04-27 03:03 39.72935 -86.27927 795 ft 28 kts 315°
2026-04-27 03:04 39.73078 -86.28115 795 ft 30 kts 315°
2026-04-27 03:04 39.73231 -86.28317 795 ft 32 kts 314°
2026-04-27 03:04 39.73391 -86.28529 792 ft 32 kts 315°
2026-04-27 03:04 39.73510 -86.28690 791 ft 12 kts 299°
2026-04-27 03:05 39.73495 -86.28760 789 ft 5 kts 224°
2026-04-27 03:05 39.73486 -86.28772 789 ft 0 kts 225°
2026-04-27 03:05 39.73460 -86.28804 789 ft 14 kts 224°
2026-04-27 03:06 39.73394 -86.28846 789 ft 9 kts 128°
2026-04-27 03:06 39.73347 -86.28783 790 ft 25 kts 134°
2026-04-27 03:06 39.72961 -86.28273 795 ft 128 kts 134°
2026-04-27 03:06 39.72206 -86.27274 1196 ft 173 kts 134°
2026-04-27 03:07 39.71401 -86.26187 2380 ft 174 kts 134°
2026-04-27 03:07 39.70553 -86.25126 3413 ft 172 kts 135°
2026-04-27 03:07 39.69720 -86.24084 4385 ft 171 kts 135°
2026-04-27 03:07 39.68890 -86.23015 5332 ft 174 kts 135°
2026-04-27 03:08 39.68043 -86.21893 6289 ft 177 kts 135°
2026-04-27 03:08 39.67208 -86.20760 7231 ft 181 kts 135°
2026-04-27 03:08 39.66354 -86.19566 8200 ft 185 kts 135°
2026-04-27 03:08 39.65498 -86.18336 9167 ft 189 kts 135°
2026-04-27 03:09 39.64558 -86.17195 10126 ft 189 kts 153°
2026-04-27 03:09 39.63356 -86.16589 11105 ft 190 kts 164°
2026-04-27 03:09 39.62103 -86.16093 12082 ft 192 kts 165°
2026-04-27 03:09 39.60764 -86.15567 12790 ft 213 kts 165°
2026-04-27 03:10 39.59304 -86.14993 13605 ft 229 kts 165°
2026-04-27 03:10 39.57765 -86.14387 14526 ft 239 kts 165°
2026-04-27 03:10 39.56171 -86.13760 15487 ft 247 kts 165°
2026-04-27 03:10 39.54514 -86.13109 16482 ft 252 kts 165°
2026-04-27 03:11 39.52850 -86.12455 17451 ft 256 kts 165°
2026-04-27 03:11 39.51079 -86.11762 17841 ft 284 kts 165°
2026-04-27 03:11 39.49072 -86.10980 18111 ft 314 kts 165°
2026-04-27 03:11 39.46931 -86.10142 18776 ft 327 kts 165°
2026-04-27 03:12 39.44735 -86.09281 19599 ft 334 kts 165°
2026-04-27 03:12 39.42522 -86.08415 20430 ft 340 kts 165°
2026-04-27 03:12 39.40222 -86.07515 21249 ft 346 kts 165°
2026-04-27 03:12 39.37918 -86.06614 22023 ft 352 kts 165°
2026-04-27 03:13 39.35569 -86.05696 22763 ft 357 kts 165°
2026-04-27 03:13 39.33189 -86.04768 23518 ft 362 kts 165°
2026-04-27 03:13 39.30740 -86.03813 24249 ft 368 kts 165°
2026-04-27 03:13 39.28288 -86.02859 24943 ft 374 kts 165°
2026-04-27 03:14 39.25803 -86.01891 25660 ft 379 kts 165°
2026-04-27 03:14 39.23234 -86.00893 26336 ft 384 kts 165°
2026-04-27 03:14 39.20676 -85.99899 27002 ft 389 kts 165°
2026-04-27 03:14 39.18075 -85.98888 27640 ft 393 kts 165°
2026-04-27 03:15 39.15433 -85.97863 28290 ft 397 kts 165°
2026-04-27 03:15 39.12763 -85.96828 28853 ft 402 kts 166°
2026-04-27 03:15 39.10062 -85.95782 29399 ft 407 kts 166°
2026-04-27 03:15 39.07325 -85.94722 29945 ft 411 kts 165°
2026-04-27 03:16 39.04569 -85.93657 30479 ft 414 kts 166°
2026-04-27 03:16 39.01760 -85.92571 30948 ft 419 kts 165°
2026-04-27 03:16 38.98975 -85.91496 31384 ft 424 kts 165°
2026-04-27 03:16 38.96106 -85.90390 31785 ft 429 kts 166°
2026-04-27 03:17 38.93204 -85.89272 32156 ft 435 kts 166°
2026-04-27 03:17 38.90273 -85.88144 32584 ft 438 kts 166°
2026-04-27 03:17 38.87320 -85.87008 32998 ft 441 kts 166°
2026-04-27 03:17 38.84337 -85.85861 33372 ft 445 kts 166°
2026-04-27 03:18 38.81349 -85.84714 33710 ft 449 kts 166°
2026-04-27 03:18 38.78299 -85.83543 34075 ft 451 kts 166°
2026-04-27 03:18 38.75307 -85.82396 34515 ft 452 kts 166°
2026-04-27 03:18 38.72265 -85.81230 35082 ft 450 kts 166°
2026-04-27 03:19 38.69257 -85.80078 35603 ft 449 kts 166°
2026-04-27 03:19 38.66280 -85.78940 36061 ft 449 kts 167°
2026-04-27 03:19 38.63285 -85.77795 36474 ft 449 kts 167°
2026-04-27 03:19 38.60263 -85.76642 36866 ft 449 kts 167°
2026-04-27 03:20 38.57289 -85.75508 37214 ft 450 kts 167°
2026-04-27 03:20 38.54258 -85.74353 37578 ft 450 kts 167°
2026-04-27 03:20 38.51257 -85.73212 37872 ft 451 kts 167°
2026-04-27 03:20 38.48238 -85.72063 38152 ft 453 kts 167°
2026-04-27 03:21 38.45207 -85.70911 38488 ft 452 kts 168°
2026-04-27 03:21 38.42195 -85.69768 38807 ft 452 kts 168°
2026-04-27 03:21 38.39172 -85.68622 39068 ft 453 kts 168°
2026-04-27 03:21 38.36160 -85.67481 39295 ft 454 kts 168°
2026-04-27 03:22 38.33122 -85.66330 39580 ft 454 kts 168°
2026-04-27 03:22 38.30089 -85.65183 39789 ft 455 kts 168°
2026-04-27 03:22 38.27034 -85.64028 40006 ft 455 kts 168°
2026-04-27 03:23 38.20942 -85.61731 40071 ft 460 kts 167°
2026-04-27 03:23 38.14780 -85.59409 40065 ft 461 kts 168°
2026-04-27 03:24 38.08582 -85.57207 40070 ft 468 kts 172°
2026-04-27 03:24 38.02135 -85.55479 40064 ft 477 kts 172°
2026-04-27 03:25 37.95605 -85.53730 40053 ft 486 kts 172°
2026-04-27 03:25 37.88918 -85.51939 40057 ft 493 kts 172°
2026-04-27 03:26 37.82189 -85.50136 40056 ft 498 kts 172°
2026-04-27 03:26 37.75350 -85.48305 40053 ft 503 kts 172°
2026-04-27 03:27 37.68441 -85.46458 40056 ft 508 kts 172°
2026-04-27 03:27 37.61482 -85.44600 40050 ft 513 kts 172°
2026-04-27 03:28 37.54471 -85.42731 40051 ft 516 kts 172°
2026-04-27 03:28 37.47459 -85.40864 40059 ft 517 kts 172°
2026-04-27 03:29 37.40460 -85.39003 40070 ft 516 kts 172°
2026-04-27 03:29 37.33428 -85.37138 40061 ft 516 kts 172°
2026-04-27 03:30 37.26374 -85.35269 40071 ft 515 kts 172°
2026-04-27 03:30 37.19384 -85.33421 40067 ft 515 kts 172°
2026-04-27 03:31 37.12353 -85.31567 40061 ft 514 kts 173°
2026-04-27 03:31 37.05315 -85.29714 40057 ft 515 kts 172°
2026-04-27 03:32 36.98339 -85.27881 40049 ft 516 kts 173°
2026-04-27 03:32 36.91305 -85.26037 40051 ft 517 kts 173°
2026-04-27 03:33 36.84255 -85.24191 40042 ft 517 kts 173°
2026-04-27 03:33 36.77198 -85.22347 40049 ft 517 kts 173°
2026-04-27 03:34 36.70172 -85.20515 40115 ft 519 kts 172°
2026-04-27 03:34 36.66601 -85.19585 40233 ft 519 kts 172°
2026-04-27 03:34 36.63075 -85.18667 40372 ft 518 kts 172°
2026-04-27 03:34 36.59562 -85.17754 40477 ft 518 kts 172°
2026-04-27 03:35 36.56025 -85.16836 40571 ft 519 kts 172°
2026-04-27 03:35 36.48946 -85.15000 40771 ft 520 kts 172°
2026-04-27 03:36 36.41869 -85.13168 40928 ft 521 kts 172°
2026-04-27 03:36 36.34736 -85.11326 41051 ft 522 kts 172°
2026-04-27 03:37 36.27580 -85.09482 41065 ft 524 kts 172°
2026-04-27 03:37 36.20457 -85.07649 41076 ft 524 kts 172°
2026-04-27 03:38 36.13279 -85.05804 41078 ft 523 kts 172°
2026-04-27 03:38 36.06110 -85.03966 41079 ft 524 kts 172°
2026-04-27 03:39 35.98959 -85.02136 41085 ft 524 kts 172°
2026-04-27 03:39 35.91806 -85.00309 41068 ft 524 kts 172°
2026-04-27 03:40 35.84672 -84.98489 41073 ft 524 kts 172°
2026-04-27 03:40 35.77510 -84.96667 41070 ft 524 kts 172°
2026-04-27 03:41 35.70391 -84.94857 41059 ft 524 kts 172°
2026-04-27 03:41 35.63219 -84.93038 41052 ft 524 kts 172°
2026-04-27 03:42 35.56104 -84.91235 41046 ft 524 kts 172°
2026-04-27 03:42 35.48955 -84.89425 41038 ft 524 kts 172°
2026-04-27 03:43 35.41808 -84.87618 41041 ft 524 kts 172°
2026-04-27 03:43 35.34668 -84.85816 41046 ft 524 kts 172°
2026-04-27 03:44 35.27502 -84.84011 41042 ft 523 kts 172°
2026-04-27 03:44 35.20377 -84.82220 41031 ft 524 kts 172°
2026-04-27 03:45 35.13236 -84.80427 41032 ft 524 kts 172°
2026-04-27 03:45 35.06073 -84.78632 41040 ft 525 kts 172°
2026-04-27 03:46 34.98870 -84.76831 41043 ft 525 kts 172°
2026-04-27 03:46 34.91741 -84.75051 41057 ft 525 kts 172°
2026-04-27 03:47 34.84573 -84.73265 41059 ft 524 kts 172°
2026-04-27 03:47 34.77449 -84.71493 41050 ft 524 kts 172°
2026-04-27 03:48 34.70302 -84.69717 41065 ft 524 kts 172°
2026-04-27 03:48 34.63163 -84.67948 41055 ft 524 kts 172°
2026-04-27 03:49 34.55981 -84.66152 41062 ft 525 kts 171°
2026-04-27 03:49 34.48822 -84.64275 41065 ft 525 kts 171°
2026-04-27 03:50 34.41711 -84.62415 41068 ft 525 kts 171°
2026-04-27 03:50 34.37026 -84.61192 41074 ft 525 kts 171°
2026-04-27 03:51 34.32435 -84.59988 41070 ft 525 kts 171°
2026-04-27 03:51 34.25315 -84.58135 41076 ft 525 kts 171°
2026-04-27 03:52 34.18142 -84.56272 41074 ft 525 kts 171°
2026-04-27 03:52 34.11004 -84.54421 41073 ft 524 kts 171°
2026-04-27 03:53 34.03866 -84.52573 41077 ft 524 kts 171°
2026-04-27 03:53 33.96771 -84.50960 41080 ft 524 kts 173°
2026-04-27 03:54 33.89543 -84.49366 41071 ft 524 kts 173°
2026-04-27 03:54 33.82364 -84.47784 41064 ft 524 kts 173°
2026-04-27 03:55 33.75190 -84.46205 41070 ft 523 kts 173°
2026-04-27 03:55 33.68122 -84.44019 41073 ft 528 kts 162°
2026-04-27 03:56 33.61463 -84.40167 41073 ft 532 kts 149°
2026-04-27 03:56 33.55602 -84.34779 41073 ft 534 kts 137°
2026-04-27 03:57 33.50274 -84.28482 41071 ft 535 kts 135°
2026-04-27 03:57 33.44975 -84.22204 40446 ft 544 kts 135°
2026-04-27 03:57 33.42311 -84.19052 39730 ft 536 kts 135°
2026-04-27 03:58 33.39679 -84.15942 39107 ft 522 kts 135°
2026-04-27 03:58 33.37131 -84.12933 38503 ft 512 kts 135°
2026-04-27 03:58 33.34615 -84.09965 37839 ft 506 kts 135°
2026-04-27 03:58 33.32108 -84.07009 37182 ft 499 kts 135°
2026-04-27 03:59 33.29680 -84.04150 36530 ft 492 kts 135°
2026-04-27 03:59 33.27220 -84.01254 35872 ft 485 kts 135°
2026-04-27 03:59 33.24861 -83.98480 35251 ft 479 kts 135°
2026-04-27 03:59 33.22480 -83.95682 34605 ft 474 kts 135°
2026-04-27 04:00 33.20141 -83.92935 33976 ft 469 kts 135°
2026-04-27 04:00 33.17822 -83.90215 33371 ft 463 kts 135°
2026-04-27 04:00 33.15552 -83.87554 32746 ft 459 kts 135°
2026-04-27 04:00 33.13273 -83.84885 32140 ft 453 kts 135°
2026-04-27 04:01 33.11052 -83.82285 31543 ft 448 kts 135°
2026-04-27 04:01 33.08855 -83.79714 30957 ft 443 kts 135°
2026-04-27 04:01 33.06676 -83.77169 30370 ft 438 kts 135°
2026-04-27 04:01 33.04485 -83.74609 29788 ft 433 kts 135°
2026-04-27 04:02 33.02373 -83.72145 29221 ft 428 kts 135°
2026-04-27 04:02 33.00240 -83.69657 28650 ft 423 kts 135°
2026-04-27 04:02 32.98167 -83.67242 28091 ft 419 kts 135°
2026-04-27 04:02 32.96097 -83.64831 27549 ft 415 kts 135°
2026-04-27 04:03 32.94062 -83.62463 26999 ft 410 kts 135°
2026-04-27 04:03 32.92025 -83.60094 26453 ft 406 kts 135°
2026-04-27 04:03 32.90005 -83.57746 25918 ft 402 kts 135°
2026-04-27 04:03 32.88028 -83.55450 25386 ft 398 kts 135°
2026-04-27 04:04 32.86055 -83.53161 24859 ft 394 kts 135°
2026-04-27 04:04 32.84096 -83.50889 24343 ft 391 kts 135°
2026-04-27 04:04 32.82182 -83.48669 23825 ft 387 kts 135°
2026-04-27 04:04 32.80255 -83.46439 23310 ft 383 kts 135°
2026-04-27 04:05 32.78360 -83.44244 22811 ft 379 kts 135°
2026-04-27 04:05 32.76474 -83.42062 22305 ft 377 kts 135°
2026-04-27 04:05 32.74616 -83.39914 21809 ft 375 kts 135°
2026-04-27 04:05 32.72742 -83.37749 21316 ft 372 kts 135°
2026-04-27 04:06 32.70915 -83.35638 20828 ft 369 kts 135°
2026-04-27 04:06 32.69085 -83.33527 20344 ft 367 kts 135°
2026-04-27 04:06 32.67256 -83.31417 19859 ft 364 kts 136°
2026-04-27 04:07 32.63636 -83.27245 18892 ft 360 kts 135°
2026-04-27 04:07 32.61869 -83.25210 18424 ft 358 kts 136°
2026-04-27 04:07 32.60074 -83.23145 17952 ft 356 kts 136°
2026-04-27 04:07 32.58312 -83.21119 17479 ft 354 kts 135°
2026-04-27 04:08 32.56543 -83.19087 17005 ft 350 kts 135°
2026-04-27 04:08 32.54801 -83.17085 16491 ft 349 kts 135°
2026-04-27 04:08 32.53090 -83.15121 16019 ft 342 kts 135°
2026-04-27 04:08 32.51377 -83.13155 15573 ft 341 kts 135°
2026-04-27 04:09 32.49694 -83.11226 15128 ft 338 kts 135°
2026-04-27 04:09 32.48011 -83.09298 14685 ft 335 kts 135°
2026-04-27 04:09 32.46340 -83.07384 14234 ft 331 kts 134°
2026-04-27 04:09 32.44710 -83.05518 13804 ft 328 kts 134°
2026-04-27 04:10 32.43077 -83.03649 13370 ft 324 kts 134°
2026-04-27 04:10 32.41467 -83.01810 12934 ft 319 kts 134°
2026-04-27 04:10 32.39885 -83.00005 12518 ft 310 kts 135°
2026-04-27 04:10 32.38156 -82.98533 12118 ft 312 kts 154°
2026-04-27 04:11 32.36069 -82.97826 11699 ft 312 kts 175°
2026-04-27 04:11 32.33908 -82.97763 11266 ft 313 kts 180°
2026-04-27 04:11 32.31733 -82.97752 10851 ft 310 kts 180°
2026-04-27 04:11 32.29597 -82.97735 10444 ft 309 kts 180°
2026-04-27 04:12 32.27444 -82.97718 10031 ft 306 kts 180°
2026-04-27 04:12 32.25336 -82.97701 9634 ft 304 kts 180°
2026-04-27 04:12 32.23222 -82.97684 9227 ft 302 kts 180°
2026-04-27 04:12 32.21103 -82.97668 8819 ft 300 kts 180°
2026-04-27 04:13 32.19033 -82.97651 8424 ft 297 kts 180°
2026-04-27 04:13 32.16977 -82.97634 8030 ft 295 kts 180°
2026-04-27 04:13 32.14919 -82.97617 7635 ft 293 kts 180°
2026-04-27 04:13 32.12887 -82.97601 7258 ft 291 kts 180°
2026-04-27 04:14 32.10863 -82.97585 6857 ft 289 kts 180°
2026-04-27 04:14 32.08874 -82.97595 6488 ft 287 kts 185°
2026-04-27 04:14 32.06948 -82.98174 6113 ft 283 kts 201°
2026-04-27 04:14 32.05136 -82.99005 5801 ft 282 kts 202°
2026-04-27 04:15 32.03299 -82.99877 5468 ft 282 kts 202°
2026-04-27 04:15 32.01494 -83.00746 5140 ft 281 kts 202°
2026-04-27 04:15 31.99665 -83.01637 4816 ft 280 kts 202°
2026-04-27 04:15 31.97888 -83.02518 4492 ft 279 kts 202°
2026-04-27 04:16 31.96104 -83.03423 4183 ft 278 kts 202°
2026-04-27 04:16 31.94339 -83.04336 3865 ft 277 kts 202°
2026-04-27 04:16 31.92580 -83.05262 3551 ft 275 kts 202°
2026-04-27 04:16 31.90777 -83.05939 3180 ft 272 kts 181°
2026-04-27 04:17 31.88989 -83.05518 2973 ft 257 kts 146°
2026-04-27 04:17 31.87759 -83.04065 2964 ft 249 kts 114°
2026-04-27 04:17 31.87250 -83.02142 2964 ft 247 kts 91°
2026-04-27 04:17 31.87354 -83.00152 2961 ft 246 kts 81°
2026-04-27 04:18 31.87909 -82.98239 2962 ft 247 kts 58°
2026-04-27 04:18 31.89139 -82.96839 2964 ft 251 kts 31°
2026-04-27 04:18 31.90770 -82.96081 2964 ft 254 kts 20°
2026-04-27 04:18 31.92416 -82.95481 2968 ft 235 kts 20°
2026-04-27 04:19 31.93898 -82.94927 2991 ft 210 kts 21°
2026-04-27 04:19 31.95219 -82.94426 2986 ft 189 kts 21°
2026-04-27 04:19 31.96461 -82.93951 2762 ft 187 kts 22°
2026-04-27 04:19 31.97682 -82.93484 2535 ft 181 kts 22°
2026-04-27 04:20 31.98876 -82.93047 2317 ft 177 kts 21°
2026-04-27 04:20 32.00028 -82.92640 2092 ft 172 kts 24°
2026-04-27 04:20 32.01165 -82.92140 1857 ft 172 kts 27°
2026-04-27 04:20 32.02259 -82.91608 1629 ft 171 kts 28°
2026-04-27 04:21 32.03351 -82.91071 1408 ft 162 kts 28°
2026-04-27 04:21 32.04319 -82.90601 1208 ft 139 kts 28°
2026-04-27 04:21 32.05206 -82.90161 1006 ft 138 kts 28°
2026-04-27 04:21 32.06083 -82.89726 840 ft 131 kts 27°
2026-04-27 04:22 32.06892 -82.89328 682 ft 122 kts 26°
2026-04-27 04:22 32.07682 -82.88937 508 ft 120 kts 26°
2026-04-27 04:22 32.08446 -82.88560 378 ft 121 kts 25°
2026-04-27 04:22 32.09224 -82.88178 204 ft 116 kts 24°
2026-04-27 04:23 32.09851 -82.87859 198 ft 69 kts 23°
2026-04-27 04:23 32.10195 -82.87695 196 ft 33 kts 21°
2026-04-27 04:23 32.10321 -82.87650 197 ft 5 kts 351°
2026-04-27 04:23 32.10345 -82.87686 196 ft 5 kts 281°
2026-04-27 04:24 32.10322 -82.87714 196 ft 7 kts 187°
2026-04-27 04:30 32.10299 -82.87717 196 ft 0 kts 187°